When you browse on this site, cookies collect data to enhance your experience and personalize the content and advertising you see.
Visit our Privacy Policy to learn more. By continuing to use the site, you agree to this use of cookies and data.
  • en Suisse
  • Liste des pays
  • À 7 jours
  • Température de l'eau
  • Carte satellitaire
  • Carte météo
  • Widgets météo
  • user-avatar
    Se connecter

    Météo par heure à Mazari Sharif

    Ce jour, 25 Juin, Mardi

    Heure Température Précipitation Vent Pression Humidité
    00:00 +23°C° 0 mm 1 m/s 655 mmHg 20%
    01:00 +23°C° 0 mm 1 m/s 654 mmHg 21%
    02:00 +22°C° 0 mm 1 m/s 654 mmHg 22%
    03:00 +22°C° 0 mm 1 m/s 654 mmHg 22%
    04:00 +21°C° 0 mm 1 m/s 654 mmHg 22%
    05:00 +23°C° 0 mm 1 m/s 655 mmHg 20%
    06:00 +26°C° 0 mm 1 m/s 656 mmHg 17%
    07:00 +28°C° 0 mm 2 m/s 657 mmHg 15%
    08:00 +29°C° 0 mm 2 m/s 657 mmHg 14%
    09:00 +30°C° 0 mm 2 m/s 657 mmHg 14%
    10:00 +31°C° 0 mm 2 m/s 657 mmHg 13%
    11:00 +31°C° 0 mm 3 m/s 657 mmHg 12%
    12:00 +33°C° 0 mm 3 m/s 657 mmHg 11%
    13:00 +34°C° 0 mm 3 m/s 657 mmHg 9%
    14:00 +34°C° 0 mm 3 m/s 657 mmHg 9%
    15:00 +34°C° 0 mm 4 m/s 656 mmHg 8%
    16:00 +34°C° 0 mm 4 m/s 656 mmHg 8%
    17:00 +32°C° 0 mm 4 m/s 656 mmHg 9%
    18:00 +29°C° 0 mm 3 m/s 656 mmHg 10%
    19:00 +27°C° 0 mm 2 m/s 655 mmHg 11%
    20:00 +27°C° 0 mm 2 m/s 655 mmHg 12%
    21:00 +26°C° 0 mm 1 m/s 654 mmHg 13%
    22:00 +25°C° 0 mm 1 m/s 654 mmHg 14%
    23:00 +24°C° 0 mm 1 m/s 654 mmHg 14%

    Demain, 26 Juin, Mercredi

    Heure Température Précipitation Vent Pression Humidité
    00:00 +24°C° 0 mm 1 m/s 653 mmHg 15%
    01:00 +23°C° 0 mm 1 m/s 653 mmHg 15%
    02:00 +23°C° 0 mm 2 m/s 653 mmHg 15%
    03:00 +23°C° 0 mm 2 m/s 653 mmHg 16%
    04:00 +21°C° 0 mm 2 m/s 653 mmHg 16%
    05:00 +24°C° 0 mm 2 m/s 653 mmHg 14%
    06:00 +26°C° 0 mm 2 m/s 654 mmHg 13%
    07:00 +28°C° 0 mm 2 m/s 655 mmHg 11%
    08:00 +29°C° 0 mm 2 m/s 655 mmHg 11%
    09:00 +30°C° 0 mm 2 m/s 655 mmHg 10%
    10:00 +32°C° 0 mm 2 m/s 655 mmHg 10%
    11:00 +33°C° 0 mm 3 m/s 655 mmHg 10%
    12:00 +34°C° 0 mm 3 m/s 655 mmHg 9%
    13:00 +35°C° 0 mm 3 m/s 655 mmHg 8%
    14:00 +35°C° 0 mm 3 m/s 655 mmHg 8%
    15:00 +35°C° 0 mm 4 m/s 654 mmHg 8%
    16:00 +35°C° 0 mm 4 m/s 654 mmHg 7%
    17:00 +33°C° 0 mm 4 m/s 653 mmHg 8%
    18:00 +30°C° 0 mm 3 m/s 653 mmHg 8%
    19:00 +29°C° 0 mm 3 m/s 653 mmHg 9%
    20:00 +28°C° 0 mm 2 m/s 652 mmHg 10%
    21:00 +26°C° 0 mm 2 m/s 652 mmHg 11%
    22:00 +25°C° 0 mm 1 m/s 652 mmHg 11%
    23:00 +25°C° 0 mm 1 m/s 652 mmHg 12%

    Après-demain, 27 Juin, Jeudi

    Heure Température Précipitation Vent Pression Humidité
    00:00 +24°C° 0 mm 2 m/s 651 mmHg 12%
    01:00 +24°C° 0 mm 2 m/s 651 mmHg 13%
    02:00 +23°C° 0 mm 2 m/s 651 mmHg 13%
    03:00 +23°C° 0 mm 2 m/s 651 mmHg 13%
    04:00 +23°C° 0 mm 2 m/s 651 mmHg 14%
    05:00 +25°C° 0 mm 2 m/s 651 mmHg 12%
    06:00 +27°C° 0 mm 2 m/s 652 mmHg 11%
    07:00 +29°C° 0 mm 3 m/s 653 mmHg 10%
    08:00 +30°C° 0 mm 3 m/s 653 mmHg 10%
    09:00 +32°C° 0 mm 4 m/s 653 mmHg 9%
    10:00 +33°C° 0 mm 4 m/s 653 mmHg 9%
    11:00 +34°C° 0 mm 5 m/s 653 mmHg 9%
    12:00 +35°C° 0 mm 5 m/s 653 mmHg 9%
    13:00 +35°C° 0 mm 5 m/s 653 mmHg 8%
    14:00 +35°C° 0 mm 5 m/s 653 mmHg 8%
    15:00 +35°C° 0 mm 5 m/s 652 mmHg 8%
    16:00 +35°C° 0 mm 4 m/s 652 mmHg 8%
    17:00 +33°C° 0 mm 3 m/s 651 mmHg 10%
    18:00 +30°C° 0 mm 2 m/s 651 mmHg 11%
    19:00 +28°C° 0 mm 1 m/s 650 mmHg 13%
    20:00 +27°C° 0 mm 1 m/s 650 mmHg 13%
    21:00 +27°C° 0 mm 1 m/s 650 mmHg 13%
    22:00 +26°C° 0 mm 2 m/s 650 mmHg 13%
    23:00 +26°C° 0 mm 2 m/s 650 mmHg 14%

    28 Juin, Vendredi

    Heure Température Précipitation Vent Pression Humidité
    00:00 +25°C° 0 mm 2 m/s 650 mmHg 15%
    01:00 +25°C° 0 mm 2 m/s 649 mmHg 16%
    02:00 +24°C° 0 mm 2 m/s 649 mmHg 17%
    03:00 +24°C° 0 mm 2 m/s 649 mmHg 18%
    04:00 +23°C° 0 mm 2 m/s 649 mmHg 19%
    05:00 +25°C° 0 mm 2 m/s 650 mmHg 18%
    06:00 +27°C° 0 mm 2 m/s 651 mmHg 16%
    07:00 +29°C° 0 mm 2 m/s 652 mmHg 15%
    08:00 +30°C° 0 mm 2 m/s 652 mmHg 14%
    09:00 +33°C° 0 mm 3 m/s 652 mmHg 14%
    10:00 +34°C° 0 mm 4 m/s 653 mmHg 13%
    11:00 +34°C° 0 mm 4 m/s 652 mmHg 12%
    12:00 +35°C° 0 mm 4 m/s 652 mmHg 12%
    13:00 +35°C° 0 mm 5 m/s 652 mmHg 11%
    14:00 +35°C° 0 mm 4 m/s 652 mmHg 11%
    15:00 +35°C° 0 mm 4 m/s 652 mmHg 11%
    16:00 +35°C° 0 mm 4 m/s 652 mmHg 11%
    17:00 +34°C° 0 mm 4 m/s 651 mmHg 13%
    18:00 +33°C° 0 mm 4 m/s 651 mmHg 15%
    19:00 +30°C° 0 mm 3 m/s 651 mmHg 17%
    20:00 +29°C° 0 mm 3 m/s 651 mmHg 21%
    21:00 +28°C° 0 mm 2 m/s 651 mmHg 24%
    22:00 +26°C° 0 mm 1 m/s 651 mmHg 27%
    23:00 +26°C° 0 mm 1 m/s 651 mmHg 29%

    29 Juin, Samedi

    Heure Température Précipitation Vent Pression Humidité
    00:00 +25°C° 0 mm 1 m/s 650 mmHg 30%
    01:00 +25°C° 0 mm 1 m/s 650 mmHg 31%
    02:00 +24°C° 0 mm 1 m/s 650 mmHg 32%
    03:00 +24°C° 0 mm 1 m/s 650 mmHg 33%
    04:00 +23°C° 0 mm 1 m/s 649 mmHg 34%
    05:00 +25°C° 0 mm 1 m/s 650 mmHg 30%
    06:00 +27°C° 0 mm 1 m/s 651 mmHg 26%
    07:00 +29°C° 0 mm 1 m/s 652 mmHg 23%
    08:00 +30°C° 0 mm 1 m/s 652 mmHg 21%
    09:00 +31°C° 0 mm 1 m/s 652 mmHg 20%
    10:00 +32°C° 0 mm 2 m/s 652 mmHg 18%
    11:00 +34°C° 0 mm 2 m/s 652 mmHg 17%
    12:00 +35°C° 0 mm 2 m/s 651 mmHg 16%
    13:00 +36°C° 0 mm 3 m/s 651 mmHg 15%
    14:00 +36°C° 0 mm 3 m/s 651 mmHg 14%
    15:00 +36°C° 0 mm 4 m/s 651 mmHg 14%
    16:00 +36°C° 0 mm 4 m/s 651 mmHg 13%
    17:00 +35°C° 0 mm 4 m/s 651 mmHg 14%
    18:00 +33°C° 0 mm 3 m/s 650 mmHg 15%
    19:00 +31°C° 0 mm 3 m/s 650 mmHg 16%
    20:00 +29°C° 0 mm 2 m/s 650 mmHg 16%
    21:00 +28°C° 0 mm 1 m/s 650 mmHg 17%
    22:00 +27°C° 0 mm 1 m/s 650 mmHg 18%
    23:00 +27°C° 0 mm 1 m/s 650 mmHg 19%

    30 Juin, Dimanche

    Heure Température Précipitation Vent Pression Humidité
    00:00 +26°C° 0 mm 1 m/s 649 mmHg 20%
    01:00 +26°C° 0 mm 1 m/s 649 mmHg 20%
    02:00 +25°C° 0 mm 1 m/s 649 mmHg 21%
    03:00 +25°C° 0 mm 1 m/s 649 mmHg 21%
    04:00 +24°C° 0 mm 1 m/s 649 mmHg 22%
    05:00 +27°C° 0 mm 1 m/s 649 mmHg 20%
    06:00 +29°C° 0 mm 1 m/s 650 mmHg 18%
    07:00 +31°C° 0 mm 1 m/s 651 mmHg 15%
    08:00 +32°C° 0 mm 1 m/s 651 mmHg 14%
    09:00 +33°C° 0 mm 1 m/s 651 mmHg 13%
    10:00 +35°C° 0 mm 2 m/s 652 mmHg 12%
    11:00 +36°C° 0 mm 2 m/s 652 mmHg 12%
    12:00 +37°C° 0 mm 3 m/s 652 mmHg 11%
    13:00 +38°C° 0 mm 3 m/s 652 mmHg 10%
    14:00 +38°C° 0 mm 3 m/s 652 mmHg 10%
    15:00 +38°C° 0 mm 4 m/s 651 mmHg 9%
    16:00 +38°C° 0 mm 4 m/s 651 mmHg 9%
    17:00 +36°C° 0 mm 3 m/s 651 mmHg 10%
    18:00 +34°C° 0 mm 2 m/s 651 mmHg 11%
    19:00 +31°C° 0 mm 2 m/s 650 mmHg 12%
    20:00 +30°C° 0 mm 1 m/s 650 mmHg 13%
    21:00 +29°C° 0 mm 1 m/s 650 mmHg 14%
    22:00 +28°C° 0 mm 1 m/s 650 mmHg 14%
    23:00 +28°C° 0 mm 1 m/s 650 mmHg 15%
    Voir plus